New Orleans Weather Page

Compiled by Joey Kelly

 

Want a detailed forecast?
Or want to check out the National Hurricane Center?

 

NOAA Weather: Moisant International Airport

Data is taken from the Aviation Weather Service at NOAA.

This is the current weather at New Orleans International Airport
in New Orleans, Louisiana, United States:

Temp: 82.4 F
Wind: 10.4 MPH
Wind direction: West at 270°
Dewpoint: 71.6 F
Pressure: 29.96 inches of Mercury
Visibility: 10 Statute Miles
Sky: Few at 2800ft Broken at 4700ft Broken at 13000ft Broken at 25000ft
Weather:

The raw METAR data is
KMSY 232153Z 27009KT 10SM FEW028 BKN047 BKN130 BKN250 28/22 A2996 RMK AO2 SLP148


 

New Orleans Metro Radar (Breck)
New Orleans Metro Radar (Breck)

 

Regional Radar (Breck)
Regional Radar (Breck)

 

Gulf Coast Radar
Gulf Coast Radar

 

7-Day Forecast (WWL)
7-Day Forecast (WWL)

 

Southeastern U.S. Temperatures
Southeastern U.S. Temperatures

 

U.S. Surface Map
U.S. Surface Map

 

NHC Caribbean Water Vapor
NHC Caribbean Water Vapor

 

NHC 2-Day Weather Outlook
NHC 2-Day Weather Outlook

 

NHC Atlantic Tropical Cyclone Avtivity
NHC Atlantic Tropical Cyclone Avtivity

 

America and Atlantic Wind Patterns (interactive widget)

 


Other Weather Links:

National Hurricane Center
Storm Tracking (Fox-8/Bob Breck)
Louisiana Hurricane Season Notes

 

 

KellyNet Computer Services